Wind_Speed
33 34 36 36 35 34 33 32 32 31 31 32 32 32 32 32 31 30 30 30 31 31 33 34 34 35 35 35 35 35 35 35 35 35 35 34 33 31 29 26 24 23 21 20 17 14 15 13 10 10 17 21 23 21 13 7 6 6 6 6 7 8 9 9 9 8 8 8 8 6 4 4 5 8 10 11 11 9 8 9 9 7 5 6 4
35 37 39 37 36 35 34 33 32 31 31 32 33 33 33 33 32 32 32 32 32 33 33 34 35 36 36 36 37 37 38 38 38 38 37 37 35 34 32 29 26 24 23 24 21 19 18 16 11 9 12 18 24 24 16 10 8 8 9 9 10 10 11 11 8 7 6 7 8 7 5 5 5 6 8 11 14 14 11 12 12 8 7 6 5
38 40 39 38 37 36 35 34 33 31 31 32 33 33 33 33 33 33 33 34 34 35 35 35 35 36 37 37 38 38 38 39 39 39 38 37 36 35 34 32 30 28 27 26 25 23 22 19 15 10 14 18 24 26 19 12 10 10 12 11 11 12 12 11 8 6 5 5 6 6 6 6 5 5 5 7 9 12 12 13 14 11 9 8 6
37 38 38 38 38 37 36 35 33 32 32 33 34 34 34 34 34 34 34 35 36 36 37 37 37 37 38 38 39 39 39 40 40 40 39 38 37 35 35 35 34 32 31 29 27 26 25 23 20 17 17 15 17 24 22 15 13 13 14 14 12 13 13 12 10 8 6 5 5 5 6 7 6 5 4 5 5 8 10 13 16 15 12 8 7
33 34 35 36 37 37 35 34 33 33 34 35 35 35 35 35 34 34 34 34 35 35 36 37 38 39 39 39 40 40 41 42 42 42 41 41 40 39 39 38 37 36 35 33 31 30 29 26 24 22 21 18 14 20 23 19 19 18 17 16 15 14 15 14 12 10 8 7 6 6 6 7 7 6 5 5 5 6 8 12 14 15 14 10 9
29 30 31 33 34 35 35 34 34 35 36 36 36 35 35 35 35 34 34 34 34 34 34 35 36 37 39 40 40 41 42 43 44 44 44 44 44 44 43 42 41 40 39 37 35 35 33 31 29 27 26 25 21 20 22 21 21 22 21 18 17 16 16 16 15 12 10 9 8 7 7 7 7 7 6 5 5 5 5 10 13 13 13 12 10
27 27 28 30 31 33 33 33 34 35 35 36 36 36 36 35 35 35 35 36 36 36 36 36 36 37 38 39 40 41 42 43 44 45 45 46 47 47 46 45 44 43 42 41 40 38 37 35 34 31 29 30 28 27 27 23 21 22 23 22 21 18 16 17 16 14 12 10 10 9 9 7 6 6 7 8 5 5 5 8 13 14 14 13 12
27 26 26 27 28 29 30 30 31 32 33 35 36 37 37 37 37 38 39 39 39 39 39 39 39 38 39 39 40 41 42 43 44 45 46 47 48 48 47 47 46 46 45 44 42 41 40 39 38 37 34 33 33 32 31 28 24 23 23 24 24 20 17 18 17 15 13 12 12 11 10 8 4 5 6 9 8 4 4 7 12 15 15 14 13
29 28 28 28 29 29 29 29 30 30 31 33 34 36 37 37 37 38 39 40 40 40 40 39 39 38 38 38 39 41 42 43 43 44 45 47 48 48 48 48 47 46 46 45 44 44 43 42 42 41 40 38 36 33 32 30 26 25 25 27 26 22 19 19 19 17 15 14 13 13 12 9 5 5 6 8 9 7 5 5 9 14 16 16 15
32 32 32 32 32 32 31 31 31 31 32 33 34 35 36 37 36 36 37 38 39 39 38 38 36 35 35 36 37 39 41 42 43 44 44 45 46 48 47 47 46 45 44 43 43 43 43 43 44 45 44 42 39 36 35 33 28 28 29 28 27 24 22 21 21 19 17 15 14 14 14 9 6 6 5 5 8 9 8 6 5 11 16 17 17
36 36 36 36 36 36 35 35 34 34 35 35 36 37 38 38 37 36 37 38 39 39 39 38 37 37 37 38 38 39 41 42 43 44 45 46 46 47 46 46 46 44 43 42 41 39 39 40 41 44 44 44 41 39 39 37 34 34 33 30 29 27 25 23 21 21 19 17 15 15 14 10 8 8 6 5 6 9 9 8 5 7 14 17 18
38 39 40 40 40 40 39 39 39 38 38 39 39 40 40 41 41 40 40 41 42 42 42 42 42 42 42 42 42 42 42 43 43 43 44 46 47 48 48 47 47 46 44 43 42 40 39 38 38 39 41 42 43 41 41 40 38 39 37 33 31 30 27 25 23 23 22 20 17 14 13 11 10 11 10 9 7 6 8 9 8 3 10 15 18
37 39 40 41 42 42 43 43 43 43 42 42 43 43 43 44 44 44 44 45 46 46 46 46 46 46 46 46 46 45 44 44 44 44 44 45 47 49 50 50 50 48 47 46 45 43 41 40 38 37 38 40 42 43 43 42 41 41 40 36 33 31 29 28 26 24 23 22 18 15 15 14 15 14 12 11 8 5 6 9 10 5 5 10 16
37 39 40 41 42 43 44 45 46 46 46 46 46 47 46 47 48 49 49 48 49 49 49 50 49 50 49 50 49 48 47 47 46 45 45 45 46 48 50 51 52 52 51 50 48 47 45 43 41 39 38 38 40 43 45 45 43 42 41 38 35 33 32 31 28 25 23 22 20 18 19 19 18 15 12 10 7 5 5 7 10 9 7 6 12
35 37 39 41 42 43 44 46 46 47 48 48 49 50 50 51 52 54 54 53 53 54 54 55 55 55 54 54 54 54 53 52 51 49 48 47 46 48 49 50 51 53 53 53 52 50 48 47 45 43 41 40 40 41 45 47 47 44 42 40 39 38 36 33 30 27 24 22 22 22 21 20 19 15 13 11 7 7 7 6 8 11 10 7 7
35 36 37 39 41 43 44 46 47 48 49 49 50 51 52 53 54 56 58 58 57 58 59 60 61 60 60 59 59 58 57 56 55 54 52 50 49 49 49 50 50 51 52 54 54 53 51 50 48 46 45 43 42 41 43 47 49 48 44 42 41 40 38 33 28 27 25 24 24 25 23 21 21 19 15 14 11 9 10 8 6 9 11 9 8
37 37 38 39 41 42 43 45 46 48 49 50 51 52 53 54 55 57 59 60 60 60 61 62 63 63 63 62 61 61 60 59 58 57 56 54 53 51 51 52 52 51 51 52 53 54 54 53 51 49 48 46 45 43 42 44 49 50 47 44 42 40 38 32 29 27 26 27 28 27 25 23 25 24 18 16 14 12 11 9 6 7 10 11 11
39 39 40 41 42 42 43 44 46 47 48 49 50 51 52 53 54 56 58 59 60 61 61 61 62 63 63 63 63 63 63 62 61 61 60 59 57 55 54 53 53 53 53 52 52 53 54 55 55 54 51 49 48 46 44 44 47 50 50 47 44 42 38 34 35 36 33 32 32 30 28 26 27 27 22 19 17 15 12 11 8 5 7 11 13
40 40 40 41 41 41 42 43 44 45 46 47 48 49 50 51 52 54 55 57 58 59 60 60 60 61 62 63 64 64 64 64 63 63 63 62 61 59 57 56 55 54 54 54 54 53 53 53 55 56 55 52 50 50 48 45 46 50 52 51 47 45 40 37 38 41 41 38 34 32 30 28 28 27 24 21 19 17 15 13 10 5 5 10 12
40 39 39 39 39 40 40 41 42 43 44 45 46 47 48 49 50 51 52 53 55 56 57 57 58 58 59 60 61 63 64 64 64 64 64 64 64 63 61 59 58 57 56 56 56 56 55 54 54 56 58 57 54 52 51 48 46 48 53 53 50 47 44 41 36 36 41 42 38 36 33 30 29 28 26 23 21 19 17 15 12 7 5 9 10
40 39 38 39 39 39 40 41 42 43 44 45 45 46 47 48 48 49 50 50 51 52 53 54 54 54 55 55 57 58 59 61 62 63 64 64 65 65 65 63 62 60 59 58 58 58 58 57 55 55 57 59 58 55 53 51 48 48 53 55 52 49 48 48 40 34 38 43 42 40 36 33 32 30 28 27 23 21 19 17 15 10 8 7 6
39 38 38 39 40 40 41 41 42 43 43 44 44 45 46 47 47 48 49 49 50 50 51 52 52 52 52 52 53 54 55 56 58 60 62 63 64 65 66 66 66 64 62 61 60 60 59 59 57 56 56 58 60 59 56 54 51 49 52 56 55 52 52 53 49 43 43 44 42 40 36 34 34 32 31 29 26 23 20 18 16 13 11 7 5
38 39 39 40 41 41 41 41 41 42 42 42 43 43 44 45 46 47 48 48 49 49 50 51 51 52 51 52 52 53 53 54 55 57 58 60 62 63 65 67 68 68 66 64 63 62 62 60 59 58 57 58 60 61 59 57 55 52 52 57 59 57 55 55 55 53 49 45 42 40 37 35 34 34 33 31 28 24 22 20 17 15 13 9 6
40 40 41 41 41 41 41 41 41 41 41 41 41 42 43 43 44 45 46 46 47 47 48 49 49 50 51 51 52 52 53 54 54 55 56 58 59 62 64 65 67 69 69 68 67 66 64 63 62 61 60 59 60 62 62 60 58 55 53 57 62 60 58 57 57 55 51 48 45 42 40 39 37 36 35 33 30 26 24 23 19 17 15 12 9
41 42 42 42 41 41 41 41 41 41 41 41 41 41 41 42 42 43 43 43 44 44 45 46 47 48 48 49 50 51 52 53 54 55 55 56 57 59 62 64 66 68 69 70 70 69 68 66 65 63 62 61 61 63 64 62 61 59 56 58 62 63 60 59 59 56 53 50 47 42 40 41 42 41 38 34 31 28 28 27 24 21 19 15 12
42 42 42 42 41 41 41 41 42 42 41 41 41 40 40 40 40 40 40 41 41 42 42 43 44 45 46 47 48 49 50 52 53 55 56 56 56 57 59 62 65 67 69 70 71 72 72 70 68 67 65 64 63 64 65 65 64 63 61 59 62 65 63 61 60 59 55 52 49 43 38 39 42 42 39 36 34 32 32 32 29 26 23 19 15
42 42 42 42 42 42 43 43 42 42 41 41 40 39 39 38 38 39 39 40 40 41 41 41 42 43 43 44 45 46 47 49 50 52 54 55 56 57 58 60 62 65 68 70 72 73 74 74 72 71 68 67 66 66 66 67 66 66 64 61 62 65 66 64 62 61 58 55 53 46 39 39 41 39 37 36 35 34 35 35 32 30 27 22 18
42 42 42 42 43 43 44 43 42 41 40 40 40 39 39 39 39 39 39 40 40 40 40 40 41 41 41 42 43 44 45 46 48 49 51 52 54 56 58 59 61 64 67 70 72 73 75 77 76 75 72 70 69 68 68 69 69 68 67 65 63 65 68 67 64 64 62 58 56 52 45 44 45 44 43 42 39 39 39 37 35 32 27 23 20
42 42 43 44 44 44 44 43 42 41 40 40 40 40 40 40 40 40 40 40 41 41 40 40 40 41 41 41 42 42 44 45 46 48 49 50 52 53 55 58 60 63 65 68 71 74 75 77 79 79 77 74 72 71 70 71 71 70 70 69 66 65 68 69 67 66 65 62 60 58 55 52 49 47 47 49 47 45 43 40 37 33 28 25 23
42 43 44 45 45 44 43 42 42 41 41 40 40 40 40 40 40 40 40 41 41 41 41 41 41 41 41 40 40 41 41 43 44 46 47 48 49 51 53 55 58 62 65 67 70 73 75 77 80 82 81 79 76 74 73 72 73 72 72 72 70 67 67 69 69 67 66 65 63 63 62 56 51 46 46 48 50 49 47 43 39 35 31 29 26
43 44 45 45 44 43 43 42 41 41 41 40 41 41 40 40 40 40 40 40 41 41 41 41 41 41 40 39 38 38 38 39 41 42 43 45 46 48 50 52 55 59 63 66 69 72 74 77 79 83 84 83 80 78 76 75 75 74 74 74 73 71 68 69 70 69 68 66 65 64 63 59 53 48 49 50 50 50 49 45 42 38 33 30 27
44 44 44 44 43 42 42 42 41 41 41 41 40 41 40 40 40 40 40 40 40 41 41 40 40 39 39 38 37 36 36 36 36 37 38 40 42 44 46 48 51 55 60 64 68 70 73 76 79 82 85 87 85 82 80 78 77 76 76 76 75 74 71 69 70 71 70 68 66 64 62 62 57 48 50 55 50 48 49 47 44 40 35 33 32
44 44 44 43 42 41 41 41 41 41 41 41 40 40 40 40 40 40 40 40 40 39 39 39 38 38 37 36 36 35 35 34 34 34 34 35 37 39 42 44 47 51 55 60 65 69 71 74 77 81 84 88 89 87 84 81 79 78 78 78 77 76 74 71 70 71 71 70 69 66 62 63 62 51 50 56 49 44 48 48 44 41 38 37 36
44 43 43 42 41 41 40 40 41 41 41 41 41 40 40 41 41 41 40 40 39 38 37 37 36 36 36 35 35 34 34 34 32 31 31 32 33 35 37 40 42 46 51 56 62 66 69 72 76 80 83 87 90 90 88 85 82 81 80 80 79 79 77 74 72 72 73 71 71 69 64 64 65 55 50 53 51 47 49 48 46 44 42 41 41
43 42 42 41 41 41 40 41 41 41 42 41 41 41 41 41 41 41 40 40 39 37 36 35 35 34 34 34 34 34 33 33 32 30 29 29 30 31 33 35 38 41 46 51 57 63 67 70 74 78 82 85 89 92 92 89 86 83 82 82 81 81 80 78 75 73 74 74 72 71 67 66 69 62 52 53 56 56 54 50 48 46 44 43 44
42 41 41 41 40 40 40 40 41 41 42 42 42 42 42 42 41 41 40 39 38 36 35 34 33 33 32 33 33 33 32 32 31 30 29 28 28 28 29 31 33 36 39 45 51 58 64 68 72 76 80 84 87 91 93 93 90 87 85 84 84 83 82 81 78 75 76 76 75 74 70 69 71 68 62 62 62 60 57 53 50 48 46 46 44
41 41 40 40 40 40 40 40 40 40 41 41 42 43 43 42 42 40 40 39 37 35 34 33 33 32 32 32 32 32 31 31 31 30 29 27 26 26 27 28 29 31 34 37 44 51 58 65 70 74 78 82 85 89 93 95 94 92 89 87 86 85 84 83 82 79 78 78 78 77 74 72 72 71 69 68 63 58 56 55 52 50 49 48 45
40 40 40 40 40 40 40 40 39 39 39 40 41 42 42 42 41 40 38 37 36 35 33 33 33 33 32 32 32 31 31 30 31 31 30 28 26 25 25 25 26 28 30 32 36 43 51 59 67 72 76 80 84 88 91 95 97 96 93 90 88 87 86 86 85 82 80 80 81 80 78 76 75 73 71 69 63 58 56 54 53 51 51 50 47
40 40 40 40 40 40 40 40 39 38 37 37 38 40 41 41 40 39 37 36 35 34 33 33 33 33 33 32 32 31 31 31 31 32 31 30 28 26 25 25 25 25 27 28 31 36 44 52 61 69 74 78 82 86 90 94 98 99 97 93 90 89 88 88 87 85 83 83 83 82 82 80 77 75 73 71 69 65 59 55 53 52 52 51 49
40 40 40 40 39 39 40 40 39 39 37 36 36 37 38 39 38 37 35 34 34 34 34 34 34 34 33 33 32 32 32 32 32 32 32 31 29 27 26 25 24 24 25 26 28 31 37 45 54 63 71 75 80 84 88 92 97 100 100 97 93 91 91 90 89 88 86 85 85 84 83 83 80 76 74 74 73 71 68 63 58 54 51 51 50
40 40 40 39 39 39 39 39 39 38 37 36 35 35 35 36 36 36 34 34 33 34 34 34 34 34 34 33 33 33 33 33 33 33 33 33 31 29 27 25 24 24 23 24 26 28 31 38 47 56 66 73 77 81 86 90 95 99 101 101 97 94 93 92 91 90 89 88 88 87 85 85 83 79 76 75 74 74 73 70 65 59 54 52 52
39 39 39 38 38 38 38 38 38 38 37 35 34 32 32 33 34 34 34 33 33 33 34 34 34 34 34 34 34 34 35 35 35 34 34 34 32 31 28 26 24 23 22 23 24 26 28 33 41 50 59 68 74 78 83 88 92 97 101 103 101 98 95 94 92 92 91 89 90 91 89 87 86 83 80 78 75 74 74 71 67 62 57 55 56
38 38 37 37 37 37 37 37 36 36 35 33 32 31 30 31 33 33 33 33 32 33 33 34 34 34 35 35 35 36 36 36 36 35 35 34 33 32 30 27 24 22 22 22 22 24 26 29 36 44 53 62 69 75 80 85 90 95 99 104 105 102 98 96 94 94 93 91 91 93 93 90 88 86 83 81 77 74 71 69 66 61 57 57 58
38 38 37 37 36 36 35 34 34 33 32 31 31 29 29 29 31 32 32 32 32 33 33 34 35 35 36 37 37 37 37 37 36 36 35 34 33 32 31 28 25 22 21 21 21 23 25 27 32 38 46 56 64 71 76 82 88 92 97 102 106 105 102 99 97 95 95 93 92 94 96 94 90 88 85 83 80 74 68 66 66 63 60 60 59
38 38 38 37 36 35 34 33 32 32 31 30 30 29 29 29 30 32 32 33 33 33 34 34 35 35 36 37 38 37 37 37 37 36 35 35 34 33 31 28 25 22 21 19 20 21 24 25 28 34 41 49 59 67 73 79 85 90 95 100 105 108 106 102 100 98 97 95 94 94 97 97 94 91 88 85 82 77 70 67 67 66 66 65 62
38 38 37 36 35 34 33 31 31 31 30 30 30 30 30 30 31 32 32 33 33 34 34 34 35 35 36 36 36 36 36 37 37 37 36 36 35 34 32 29 25 22 20 18 18 19 22 24 26 31 37 44 53 61 69 76 82 87 92 97 103 108 109 106 103 101 99 97 96 95 96 98 97 94 92 88 84 80 74 71 71 70 69 68 65
38 37 36 35 33 33 32 31 30 30 30 30 31 31 31 32 32 32 33 33 34 34 34 34 35 35 35 35 35 35 36 37 37 38 37 38 37 35 32 29 26 23 20 17 16 17 20 22 24 28 33 39 47 56 65 72 78 84 90 95 100 106 110 109 106 104 101 100 98 96 97 99 99 97 94 89 86 85 79 74 74 73 69 69 68
36 35 34 33 32 31 30 29 29 29 30 31 32 33 33 33 33 33 33 33 33 34 34 34 35 34 34 34 34 34 36 38 39 39 39 39 38 36 32 29 26 24 21 17 15 15 18 20 22 25 30 36 43 51 60 68 75 81 87 92 97 103 108 111 110 107 104 102 101 98 97 99 100 99 96 89 85 86 82 76 74 72 69 69 70
34 33 32 31 30 29 28 28 29 30 31 32 33 34 34 34 34 34 33 33 33 33 34 34 34 34 33 33 33 34 36 38 40 40 41 40 39 36 32 28 25 23 21 18 15 13 15 18 20 23 28 33 39 47 55 64 71 78 84 89 95 100 106 110 112 110 107 105 103 101 99 99 100 101 99 91 84 84 83 79 77 74 70 69 70
32 31 30 29 28 27 28 28 30 31 32 33 34 34 34 34 34 33 32 32 32 33 33 34 33 33 33 33 34 35 37 38 40 41 42 41 40 37 32 28 25 23 20 18 15 13 13 15 18 21 25 31 36 43 51 59 67 74 80 86 92 97 102 108 112 113 110 107 106 103 101 100 100 101 100 94 87 85 83 82 80 79 74 69 69
30 29 28 27 27 27 28 29 31 32 34 34 34 34 34 33 33 32 32 32 32 32 33 33 33 33 33 34 34 35 37 38 40 42 42 42 40 37 33 29 26 23 20 18 15 13 12 13 16 19 23 28 34 40 46 54 62 70 77 83 89 94 100 105 110 114 113 110 108 106 104 102 101 102 101 97 91 88 87 85 85 84 80 72 70
Wind_Direction
274 274 280 281 279 279 277 276 275 274 274 273 272 271 270 270 269 267 265 263 262 260 259 258 257 255 254 253 252 252 252 252 253 254 255 255 256 256 255 253 252 256 259 259 255 254 261 264 276 258 227 232 243 254 276 295 305 293 264 263 271 290 303 320 345 354 1 6 5 2 335 322 315 300 285 258 245 243 243 252 257 248 256 290 297
275 276 279 278 277 276 274 274 274 275 275 273 272 271 270 269 268 268 266 264 262 261 260 259 258 257 255 254 254 254 253 253 253 253 255 255 255 254 254 252 249 251 254 257 255 254 260 258 267 272 232 230 240 249 267 280 285 283 267 259 259 272 288 299 321 335 343 356 0 359 340 315 309 312 307 283 265 258 247 242 247 242 235 259 274
275 277 277 276 276 274 272 272 272 274 274 274 273 271 270 268 267 266 265 265 263 262 261 260 259 258 257 256 255 255 255 255 255 254 255 255 254 253 252 250 247 247 249 254 256 255 257 252 248 232 210 220 236 244 258 274 281 277 266 259 258 264 276 289 302 309 316 335 345 351 353 338 314 311 318 307 276 258 247 237 233 232 234 248 257
276 277 277 276 275 274 273 273 272 272 272 273 273 273 272 270 268 267 264 263 263 262 262 261 260 259 258 257 256 256 256 257 256 256 255 255 254 253 253 251 248 246 247 250 254 255 255 252 243 226 211 209 230 245 252 267 280 277 266 256 256 260 265 277 289 294 287 293 318 330 347 349 332 323 314 310 297 264 248 237 231 226 226 244 251
278 278 277 276 275 275 276 275 274 272 271 272 273 272 272 271 270 268 266 263 262 262 262 262 262 261 260 259 258 257 256 256 257 256 256 256 256 256 254 253 252 249 249 250 252 254 253 250 245 239 235 226 232 246 248 261 269 268 266 254 252 260 264 269 277 284 276 272 295 309 327 344 338 339 335 305 305 286 244 230 235 230 219 232 246
281 281 280 279 277 276 276 275 274 272 271 271 271 271 271 271 270 268 267 265 263 262 262 262 262 262 261 260 259 258 257 256 256 257 257 258 258 258 257 257 257 255 254 253 252 253 251 249 247 244 242 236 234 234 238 258 265 260 263 254 248 258 267 269 267 269 269 265 279 298 311 329 337 343 356 340 317 313 264 226 232 235 224 229 239
283 282 282 280 278 276 276 275 273 271 270 270 270 270 270 269 268 268 267 266 264 264 263 264 263 262 261 260 260 259 258 257 256 257 256 257 258 258 259 259 259 258 256 255 253 252 249 249 249 245 242 239 237 235 239 256 261 255 259 257 250 250 260 268 262 256 260 263 268 286 299 309 331 338 355 7 350 321 299 248 233 232 231 235 237
285 283 281 280 278 277 276 276 274 273 272 271 270 270 270 269 268 268 268 267 266 265 264 265 264 263 261 260 260 259 258 258 257 257 256 256 256 257 257 258 258 257 256 255 253 251 249 248 249 247 244 240 239 240 244 252 253 249 251 254 252 246 248 260 259 252 252 260 264 273 286 290 314 327 331 358 8 352 311 270 242 232 229 234 236
285 284 282 280 279 277 277 276 274 274 272 271 270 270 270 269 269 268 267 267 266 265 264 264 264 263 262 261 260 259 259 258 257 257 256 256 256 256 256 256 256 256 255 254 253 251 249 247 247 247 245 242 238 237 241 243 247 251 247 245 247 245 243 251 256 252 250 257 261 264 272 273 290 317 313 334 356 3 348 306 259 237 226 231 238
282 281 280 278 278 277 276 275 273 272 270 269 269 268 269 268 268 268 267 266 265 264 263 261 260 260 261 262 262 262 260 259 257 256 256 255 256 256 255 254 254 253 253 252 251 249 248 246 244 245 244 242 237 233 235 235 236 244 243 240 242 242 239 241 247 250 252 256 258 258 259 257 278 304 305 317 335 345 350 348 286 240 222 225 236
277 276 276 275 275 275 274 273 272 271 269 268 268 268 268 268 268 267 266 265 263 261 259 257 257 258 262 264 265 265 263 262 259 257 256 254 254 254 254 253 251 250 249 248 247 245 244 243 241 240 240 239 236 231 231 229 228 233 235 236 238 236 234 233 237 244 250 252 254 254 248 242 265 287 293 295 311 329 338 353 345 249 226 223 230
277 275 275 274 274 274 272 271 270 269 268 267 267 267 268 268 267 266 264 262 261 259 258 257 258 260 263 265 266 266 264 262 260 259 257 255 254 253 253 252 250 249 248 246 246 244 242 242 240 238 237 236 233 230 228 227 226 227 228 231 234 232 230 230 231 235 242 246 250 250 239 235 254 271 288 290 287 315 325 337 351 287 234 229 227
280 279 277 276 275 274 273 272 270 269 268 267 267 266 266 266 266 264 263 261 260 259 258 258 258 260 262 264 266 265 263 261 259 258 258 257 255 254 252 251 250 248 248 247 246 245 243 242 241 239 237 234 232 229 227 227 226 225 225 225 227 229 230 229 228 230 236 241 243 242 237 243 256 265 282 288 276 293 318 324 335 333 265 243 227
283 282 281 279 277 276 274 273 271 270 269 268 267 266 265 265 265 265 263 262 262 261 260 259 259 260 261 262 263 264 263 262 260 258 257 256 256 254 253 251 250 248 247 247 247 246 244 243 241 239 237 235 233 230 227 226 225 225 224 222 220 223 228 229 229 230 235 240 240 235 236 246 254 260 272 277 270 289 309 313 319 322 318 279 232
285 283 282 280 279 277 275 274 273 272 271 269 268 267 266 265 265 265 264 263 262 262 262 261 261 261 261 262 262 263 263 262 261 259 257 256 255 254 253 252 250 248 247 246 246 245 244 243 241 238 237 235 233 231 228 226 225 225 223 222 219 218 222 226 227 231 235 238 237 231 232 240 246 252 258 259 268 293 297 298 305 307 316 321 258
288 286 284 281 279 277 275 274 273 272 272 271 269 268 267 266 266 266 266 265 263 262 262 262 263 263 262 262 262 263 262 262 261 259 257 255 254 253 253 252 251 249 247 245 244 244 243 241 240 237 235 234 233 232 230 226 225 224 222 221 219 217 217 219 221 227 233 236 235 233 232 237 242 247 248 245 257 278 280 283 295 301 311 323 293
293 291 288 285 282 279 277 276 274 273 272 272 271 270 269 268 268 267 268 267 266 265 264 263 264 264 264 263 262 261 260 260 260 258 257 255 253 252 251 251 250 249 247 245 244 242 241 240 238 236 233 232 232 231 230 228 224 223 221 218 216 216 214 214 217 223 232 238 239 238 235 235 240 244 243 237 245 263 268 272 280 293 306 319 313
295 294 291 287 285 283 281 279 278 276 275 274 273 272 271 270 270 269 269 268 268 267 266 265 265 264 264 264 263 261 260 259 258 257 256 254 252 251 249 248 248 247 246 245 243 242 240 238 237 235 233 231 230 229 229 228 224 221 219 217 215 216 211 207 214 222 228 233 238 242 239 239 241 243 244 237 240 254 259 261 266 273 295 310 318
296 294 291 288 286 284 283 281 280 279 278 277 276 275 274 273 272 271 270 269 269 268 267 266 265 264 263 262 262 261 260 258 256 255 254 253 252 250 248 246 245 245 245 244 242 241 240 238 236 234 232 230 229 228 228 227 225 220 218 216 214 215 210 201 209 220 225 227 234 241 239 239 243 242 244 241 240 249 252 255 259 251 279 294 300
298 296 294 292 291 289 288 287 286 285 284 283 282 281 279 277 276 274 273 272 271 270 269 268 266 264 262 261 260 259 258 257 256 254 252 251 251 249 247 245 242 242 242 242 241 240 240 238 237 234 231 230 227 227 227 225 224 220 217 215 213 213 208 198 202 214 219 222 229 236 235 235 239 241 243 243 242 246 248 251 257 243 248 277 282
302 301 300 298 297 296 295 294 292 291 290 289 288 286 285 283 281 280 278 276 275 273 272 271 269 267 265 263 261 259 257 256 255 254 252 250 249 248 247 245 243 240 239 240 240 240 239 238 237 235 231 229 227 226 225 224 223 220 217 213 211 211 206 198 198 203 207 214 223 230 231 230 233 238 243 245 243 245 247 247 252 242 219 241 261
305 304 303 302 301 300 298 297 296 294 293 291 290 288 287 285 284 282 281 280 278 277 275 274 273 271 269 266 264 262 259 257 254 253 252 250 249 247 246 245 243 241 238 237 238 238 238 237 236 235 232 228 226 224 224 223 221 219 216 212 210 209 206 201 199 200 202 210 219 225 229 230 231 235 240 242 241 244 245 240 245 240 210 207 233
307 306 305 304 303 302 301 300 298 296 294 293 291 289 287 286 285 283 282 281 280 279 277 276 275 274 273 270 268 266 263 260 257 254 252 250 248 247 245 244 243 241 238 235 235 235 235 235 234 234 232 229 226 224 222 221 220 218 216 212 209 208 207 204 202 204 206 208 213 220 226 230 234 237 238 239 241 243 242 234 235 236 214 201 218
309 308 307 306 305 305 303 302 300 298 296 295 293 291 289 287 285 284 283 282 281 280 279 278 277 276 275 273 271 269 267 264 261 258 254 251 249 247 245 244 242 241 239 236 233 232 232 233 232 232 231 229 226 223 221 220 219 218 216 212 210 208 206 205 204 205 206 204 207 215 222 229 232 236 239 239 238 239 238 231 225 230 223 206 209
311 309 308 308 307 306 305 304 303 301 300 298 296 293 291 289 287 286 284 283 282 280 279 278 277 276 274 273 271 270 269 267 265 262 259 255 251 248 245 244 242 241 239 236 233 231 230 229 230 229 229 228 225 222 220 219 217 217 215 213 211 208 206 206 205 205 205 204 206 209 215 221 226 231 235 235 235 236 238 234 223 224 229 219 213
311 310 309 309 308 308 307 307 306 305 303 301 299 296 294 292 291 289 288 286 285 283 281 280 278 276 275 273 271 269 267 266 265 263 261 259 255 251 248 244 242 241 239 237 233 231 229 227 227 227 227 226 225 222 220 218 216 216 215 213 211 209 207 206 205 205 204 203 204 204 205 212 220 228 232 230 231 234 237 235 224 220 228 227 219
311 311 310 310 310 310 310 310 309 308 306 303 301 299 298 297 295 294 292 291 289 287 285 284 281 280 278 276 274 272 270 267 265 263 261 259 257 254 251 247 244 241 239 238 234 231 228 226 225 224 224 224 224 222 220 217 216 215 214 213 212 210 208 207 206 205 203 202 202 202 202 206 211 221 231 232 234 236 237 235 227 220 224 228 222
312 312 312 312 312 312 312 311 310 308 307 305 304 303 303 302 300 299 298 296 294 293 291 290 288 286 284 282 280 278 275 272 269 266 263 260 257 254 252 249 246 243 240 238 235 232 229 226 224 223 222 222 222 222 219 217 216 215 213 212 212 210 209 208 208 207 205 203 202 202 202 202 201 208 221 229 235 239 239 236 230 223 223 225 221
314 314 314 314 314 313 312 311 311 310 309 308 308 307 306 306 305 304 303 302 300 299 298 297 295 292 290 288 285 283 280 277 274 270 267 263 260 256 252 249 247 245 241 238 236 233 230 226 224 222 220 220 220 220 219 217 216 215 213 212 211 210 209 209 208 207 206 205 204 204 204 202 199 203 215 224 229 234 236 234 231 227 224 224 222
315 315 314 314 314 313 313 312 312 312 311 311 311 310 309 309 309 308 307 306 305 304 303 301 299 296 293 291 288 285 282 279 277 274 271 267 263 259 254 250 247 245 243 240 237 234 231 227 224 222 220 218 218 219 219 218 216 214 213 212 210 210 209 208 207 207 206 205 205 206 207 205 201 202 211 221 226 229 231 231 229 228 228 227 224
316 315 315 314 314 313 313 313 313 314 314 314 313 312 311 312 312 311 310 308 307 306 305 304 301 299 296 294 290 287 284 282 279 277 275 271 267 262 258 252 248 244 242 241 238 235 231 228 225 222 220 218 216 217 217 217 216 215 213 212 210 209 209 208 207 207 205 205 205 206 208 206 202 203 207 214 223 228 230 230 227 226 229 228 224
316 316 315 315 314 314 314 314 315 315 315 314 313 313 314 314 313 312 311 309 308 308 307 305 303 301 299 297 295 292 289 286 283 280 277 274 270 266 260 256 250 245 242 240 238 236 232 229 226 224 221 218 216 215 215 216 216 215 213 212 210 209 208 208 207 206 205 205 204 205 206 204 204 207 205 205 215 225 228 228 225 225 228 225 222
317 316 316 315 315 315 316 316 317 316 316 315 315 316 316 316 314 313 311 310 310 310 308 306 305 303 302 300 300 298 296 292 288 284 281 277 273 269 264 258 253 247 242 239 237 236 233 230 227 225 222 219 216 214 213 214 215 215 213 212 210 209 208 207 207 206 205 204 204 204 205 204 203 206 206 202 206 216 222 224 223 223 224 222 222
318 317 316 316 316 317 318 318 318 318 317 318 319 319 318 316 315 313 313 313 312 311 309 308 306 305 305 305 304 302 300 297 294 290 286 282 278 273 267 261 255 249 244 239 236 235 233 230 227 226 223 220 217 214 212 212 213 214 213 212 210 209 208 207 206 206 204 204 205 204 203 203 201 203 206 202 202 211 219 221 222 222 221 221 222
319 317 317 317 318 320 320 320 320 320 320 321 321 320 318 316 315 315 314 314 314 312 311 309 308 308 308 308 307 305 304 301 299 296 293 288 284 279 273 267 259 252 246 241 236 234 232 230 227 225 224 221 218 215 213 210 211 213 213 212 210 208 207 206 205 205 203 203 204 203 201 200 201 202 202 201 204 213 218 219 220 222 221 221 223
319 318 319 320 321 322 322 322 322 323 323 323 322 320 318 317 316 316 316 315 315 314 313 312 311 311 311 310 309 308 307 305 304 302 299 294 290 286 280 273 266 258 250 243 238 234 231 229 227 225 224 222 219 216 214 211 209 211 212 211 210 208 207 206 205 205 204 202 202 203 200 199 201 203 202 205 210 215 216 216 218 220 220 221 222
320 321 322 323 323 323 323 323 324 325 324 323 321 320 318 317 317 318 317 316 316 316 315 315 314 314 313 312 311 310 310 310 308 306 304 301 297 292 287 281 273 265 255 246 240 235 231 228 227 225 223 221 220 217 215 212 209 208 210 210 209 208 207 206 205 204 203 201 201 203 201 198 200 203 206 209 212 213 214 215 217 219 220 220 220
323 324 324 325 325 325 324 324 325 325 324 322 320 319 318 317 317 318 318 318 318 318 318 318 317 316 315 314 313 313 313 313 311 310 308 306 304 299 293 287 280 272 263 252 243 237 232 228 226 225 223 221 219 217 215 213 209 207 208 209 209 207 206 206 205 203 203 201 200 202 203 199 199 202 206 208 208 208 212 214 216 219 221 220 220
325 326 326 326 326 325 324 324 324 324 323 321 319 318 317 317 317 318 318 319 320 321 321 320 319 318 317 317 316 316 316 316 315 313 312 310 309 306 301 294 286 278 270 260 248 239 234 229 225 224 223 220 219 217 215 213 211 208 206 207 208 207 206 206 205 203 202 202 199 201 203 202 199 201 204 206 205 205 207 209 210 215 220 222 221
327 327 327 327 326 325 324 324 323 323 322 321 320 319 318 317 317 319 321 322 323 322 322 321 320 319 319 319 320 320 320 320 319 318 316 314 313 311 307 300 291 283 274 266 256 243 235 231 226 223 222 221 218 217 215 213 212 209 206 205 206 207 206 206 205 204 202 201 200 200 203 203 200 200 203 205 205 205 205 207 209 211 216 220 221
329 328 327 327 326 325 324 323 323 322 322 322 322 322 320 319 319 321 323 325 325 324 323 322 321 321 321 323 323 323 324 324 324 322 320 318 316 314 310 304 296 287 278 269 261 250 238 231 227 223 222 221 218 216 215 214 212 210 207 205 205 206 206 206 205 204 202 201 200 199 201 203 201 201 202 204 205 207 208 209 211 212 213 216 218
329 328 327 326 325 325 324 324 323 323 324 325 325 325 323 322 322 323 325 327 326 325 324 323 323 324 324 325 326 327 327 327 326 325 323 322 320 317 314 307 299 291 282 271 263 256 244 233 228 224 221 221 219 216 215 214 212 211 208 205 204 205 206 206 205 205 203 201 200 199 201 202 202 201 203 204 204 208 209 209 211 213 213 215 217
329 328 327 325 325 325 325 325 324 325 326 327 327 327 326 325 324 326 327 328 328 327 326 326 326 326 326 327 327 329 329 329 328 326 325 324 323 321 317 312 304 295 286 275 265 259 250 237 229 225 221 220 219 216 215 213 212 211 209 206 204 204 205 205 205 205 204 202 201 200 200 202 201 201 203 205 204 206 208 209 210 212 214 215 217
328 327 327 326 327 327 327 327 326 327 327 328 328 329 329 329 329 329 329 330 330 329 328 328 328 327 327 328 329 330 330 329 328 328 327 327 326 324 321 316 308 298 289 278 267 260 254 242 232 226 222 219 218 217 214 213 212 211 209 207 205 204 204 205 205 205 204 203 202 201 201 201 201 200 203 205 204 204 207 209 210 211 212 215 217
328 328 328 329 329 329 329 330 329 328 329 330 331 333 334 335 333 332 331 331 331 331 330 329 329 328 328 328 329 330 331 330 330 330 331 330 330 328 323 319 312 302 292 280 268 260 256 247 235 227 223 219 218 216 214 213 212 211 210 208 206 204 203 204 204 205 204 203 202 202 201 201 201 201 203 204 203 203 205 207 209 210 212 213 215
329 329 330 331 331 330 331 332 331 331 333 335 336 337 339 339 337 334 333 333 332 332 331 330 329 328 328 329 331 331 332 332 332 334 335 335 334 331 326 322 315 306 296 284 269 261 257 250 238 229 224 219 217 216 214 213 211 211 210 208 207 205 204 204 204 204 204 204 203 202 202 202 202 203 204 205 203 203 204 206 208 211 213 215 215
329 331 331 332 332 332 333 334 335 336 337 339 340 341 341 340 339 337 335 334 334 332 331 330 330 330 331 332 333 334 334 335 336 337 339 339 337 334 329 324 319 311 303 292 275 263 259 253 242 231 225 220 217 215 214 213 211 210 210 209 207 206 205 204 204 204 204 204 203 203 202 202 202 203 205 204 204 206 205 204 206 210 213 217 219
331 331 332 332 333 334 335 337 338 340 341 342 342 342 342 341 339 338 336 335 334 333 332 331 331 332 334 336 337 338 338 339 340 341 342 342 340 336 332 327 322 317 310 299 282 265 259 256 245 233 226 221 217 215 213 212 211 210 209 209 208 207 206 205 204 204 204 204 203 203 203 202 202 203 204 203 205 208 207 205 206 208 211 215 218
331 332 332 333 334 335 337 340 341 342 343 344 343 342 341 340 339 338 337 336 335 334 333 333 334 335 337 339 341 342 342 343 343 344 345 344 343 340 335 330 326 321 314 305 290 270 260 257 249 236 227 222 218 215 213 212 211 210 209 208 208 207 206 205 205 205 204 203 203 203 203 203 202 203 204 202 202 207 208 206 207 207 209 212 213
331 332 333 334 335 338 341 342 343 344 345 345 343 342 341 340 340 339 338 338 337 335 335 336 337 339 341 343 345 346 346 346 347 347 347 347 345 343 339 335 330 325 319 311 298 281 265 260 253 240 228 223 219 216 214 212 211 210 209 208 208 207 207 206 205 205 204 204 204 203 203 203 202 202 203 201 201 204 207 207 207 206 207 209 207
332 333 334 335 338 342 343 344 345 346 346 345 345 344 343 342 342 341 341 341 340 339 340 340 341 343 345 348 350 350 351 350 349 349 349 348 348 347 344 340 335 330 325 317 306 291 275 264 256 245 232 224 220 217 215 213 211 210 209 208 207 207 207 206 205 205 205 204 204 203 203 203 202 202 202 201 200 203 205 206 207 207 208 209 207
Height
10932 10932 10931 10930 10929 10928 10928 10928 10929 10930 10931 10932 10932 10932 10932 10932 10933 10934 10935 10935 10935 10935 10935 10935 10935 10936 10936 10937 10938 10939 10939 10939 10940 10940 10940 10941 10943 10945 10946 10948 10949 10949 10950 10951 10953 10955 10955 10955 10955 10956 10957 10958 10958 10959 10959 10958 10957 10959 10961 10961 10962 10962 10962 10963 10963 10963 10963 10962 10962 10962 10961 10961 10960 10960 10960 10961 10961 10962 10962 10963 10964 10963 10963 10964 10965
10929 10928 10927 10925 10924 10924 10924 10924 10925 10926 10927 10927 10928 10928 10928 10928 10929 10929 10930 10930 10930 10930 10930 10931 10931 10932 10932 10933 10934 10935 10935 10936 10936 10936 10936 10937 10939 10941 10942 10944 10945 10946 10947 10948 10950 10952 10953 10954 10954 10954 10955 10956 10957 10958 10958 10957 10956 10958 10960 10961 10961 10961 10962 10962 10962 10963 10963 10962 10962 10962 10961 10961 10960 10960 10960 10960 10961 10961 10962 10963 10963 10963 10964 10965 10965
10924 10923 10922 10921 10920 10920 10920 10920 10921 10922 10923 10923 10923 10923 10923 10924 10924 10925 10925 10925 10925 10925 10926 10926 10927 10927 10928 10929 10930 10931 10931 10931 10931 10932 10932 10933 10934 10936 10938 10940 10941 10943 10944 10945 10947 10949 10950 10952 10953 10953 10953 10954 10955 10956 10957 10956 10955 10956 10959 10960 10960 10960 10961 10961 10962 10962 10962 10962 10962 10962 10961 10961 10960 10960 10960 10959 10959 10960 10961 10962 10963 10963 10964 10965 10965
10920 10919 10918 10917 10916 10916 10916 10917 10918 10919 10919 10919 10919 10919 10919 10919 10919 10920 10920 10919 10919 10920 10921 10921 10922 10923 10923 10924 10926 10927 10927 10927 10927 10927 10928 10928 10930 10932 10933 10935 10937 10939 10941 10942 10944 10946 10947 10948 10950 10950 10951 10952 10953 10954 10956 10955 10953 10954 10957 10958 10959 10959 10960 10960 10961 10962 10962 10962 10962 10961 10961 10961 10960 10960 10959 10959 10959 10959 10960 10961 10962 10963 10963 10964 10965
10916 10915 10914 10913 10912 10911 10912 10913 10914 10915 10915 10915 10914 10914 10913 10914 10914 10914 10914 10914 10914 10915 10915 10916 10917 10917 10918 10919 10921 10922 10922 10922 10922 10923 10923 10924 10925 10927 10928 10929 10932 10934 10937 10939 10940 10941 10943 10945 10946 10947 10947 10948 10950 10952 10953 10953 10951 10952 10955 10956 10957 10958 10959 10959 10960 10961 10961 10961 10961 10961 10961 10961 10960 10959 10959 10958 10958 10958 10959 10960 10961 10962 10963 10964 10964
10913 10912 10910 10909 10908 10907 10908 10909 10909 10910 10910 10910 10909 10909 10909 10909 10909 10909 10909 10909 10909 10910 10910 10911 10912 10912 10913 10914 10915 10916 10916 10917 10917 10918 10919 10919 10920 10921 10922 10924 10926 10929 10931 10934 10936 10937 10938 10940 10943 10944 10944 10945 10946 10949 10950 10950 10950 10951 10953 10955 10955 10957 10958 10958 10959 10959 10960 10960 10960 10960 10960 10960 10959 10959 10958 10958 10958 10958 10958 10958 10960 10961 10962 10963 10964
10910 10908 10907 10905 10904 10903 10904 10904 10905 10905 10905 10905 10904 10904 10903 10904 10904 10904 10904 10903 10904 10904 10905 10905 10906 10907 10908 10908 10909 10910 10910 10911 10912 10913 10914 10914 10914 10915 10917 10919 10921 10923 10925 10928 10931 10932 10934 10935 10938 10940 10942 10942 10943 10945 10947 10947 10949 10950 10952 10953 10954 10955 10956 10957 10957 10958 10958 10959 10959 10959 10959 10959 10959 10958 10958 10957 10957 10957 10957 10957 10958 10960 10962 10962 10963
10906 10905 10904 10902 10900 10900 10900 10900 10900 10900 10900 10900 10899 10898 10898 10898 10898 10899 10898 10898 10898 10899 10899 10900 10900 10901 10902 10903 10903 10903 10904 10905 10907 10908 10908 10908 10909 10910 10912 10913 10914 10916 10919 10922 10924 10927 10929 10931 10933 10935 10938 10940 10941 10943 10945 10946 10948 10949 10950 10951 10952 10953 10954 10955 10955 10956 10957 10957 10958 10958 10958 10958 10958 10958 10957 10957 10957 10957 10956 10956 10957 10959 10960 10962 10962
10903 10902 10900 10898 10897 10896 10896 10896 10896 10896 10895 10895 10894 10893 10892 10892 10893 10893 10893 10892 10892 10893 10893 10894 10894 10895 10896 10897 10897 10897 10898 10899 10901 10902 10903 10903 10903 10904 10906 10907 10908 10910 10912 10915 10918 10920 10923 10926 10928 10929 10932 10935 10938 10942 10944 10945 10946 10947 10947 10948 10950 10951 10952 10953 10954 10954 10955 10956 10956 10956 10957 10957 10956 10957 10956 10957 10957 10957 10956 10955 10956 10958 10960 10960 10961
10899 10897 10895 10894 10892 10892 10891 10891 10891 10891 10890 10890 10889 10888 10887 10887 10888 10888 10888 10887 10886 10887 10887 10888 10888 10889 10889 10890 10891 10891 10892 10893 10894 10896 10897 10897 10897 10898 10899 10901 10902 10903 10905 10908 10911 10914 10916 10919 10922 10923 10926 10929 10934 10938 10941 10941 10943 10944 10944 10945 10947 10948 10950 10952 10952 10952 10953 10954 10954 10954 10955 10955 10955 10956 10956 10956 10957 10956 10956 10955 10955 10957 10958 10959 10960
10894 10892 10890 10889 10888 10887 10887 10887 10887 10886 10886 10885 10884 10883 10882 10881 10882 10883 10883 10882 10881 10881 10882 10882 10883 10883 10884 10884 10885 10885 10885 10886 10887 10889 10890 10891 10891 10892 10893 10895 10896 10898 10899 10902 10904 10907 10909 10912 10915 10917 10920 10923 10927 10932 10934 10936 10939 10940 10941 10942 10944 10945 10947 10949 10950 10950 10951 10952 10952 10952 10953 10954 10954 10955 10956 10956 10956 10955 10955 10955 10955 10956 10957 10957 10958
10889 10887 10886 10885 10884 10883 10882 10882 10881 10881 10880 10879 10879 10878 10877 10876 10876 10877 10877 10876 10876 10876 10876 10876 10877 10877 10878 10878 10878 10879 10879 10879 10881 10882 10883 10884 10885 10885 10886 10888 10890 10892 10894 10895 10898 10900 10903 10905 10908 10911 10913 10917 10920 10925 10927 10930 10934 10935 10936 10938 10940 10941 10943 10945 10946 10948 10949 10950 10950 10950 10952 10953 10954 10955 10956 10955 10955 10955 10954 10955 10955 10955 10955 10956 10957
10883 10881 10880 10880 10879 10878 10877 10876 10875 10875 10874 10873 10873 10872 10871 10870 10869 10870 10870 10870 10869 10869 10869 10870 10870 10870 10871 10871 10872 10872 10872 10873 10874 10875 10876 10877 10878 10878 10879 10881 10883 10885 10887 10889 10891 10894 10896 10899 10902 10905 10908 10910 10913 10917 10920 10923 10927 10929 10930 10933 10935 10937 10939 10941 10943 10945 10946 10947 10948 10949 10951 10952 10953 10954 10955 10954 10954 10954 10954 10954 10954 10954 10954 10955 10956
10879 10877 10875 10874 10873 10872 10871 10870 10869 10868 10867 10867 10866 10865 10865 10864 10862 10862 10863 10863 10863 10862 10862 10862 10863 10863 10864 10864 10864 10865 10866 10866 10867 10868 10869 10870 10871 10871 10872 10873 10875 10878 10880 10883 10885 10887 10890 10893 10896 10898 10901 10904 10907 10910 10913 10916 10920 10922 10925 10928 10931 10933 10935 10937 10940 10942 10943 10944 10946 10947 10949 10950 10951 10952 10953 10953 10953 10954 10953 10953 10953 10953 10954 10954 10955
10874 10872 10870 10869 10868 10866 10865 10863 10862 10861 10860 10860 10859 10858 10858 10857 10855 10853 10854 10855 10855 10855 10854 10854 10854 10855 10856 10857 10857 10857 10858 10858 10859 10861 10862 10863 10864 10864 10865 10866 10868 10870 10873 10875 10878 10880 10883 10886 10889 10892 10895 10898 10901 10903 10906 10910 10913 10917 10920 10923 10926 10929 10931 10934 10937 10939 10940 10942 10944 10944 10945 10947 10948 10950 10951 10952 10952 10952 10953 10953 10953 10953 10953 10953 10954
10869 10868 10866 10864 10862 10860 10858 10857 10855 10854 10853 10852 10851 10850 10849 10849 10848 10845 10844 10845 10846 10847 10846 10845 10845 10845 10846 10848 10849 10849 10850 10850 10851 10852 10854 10855 10856 10857 10858 10859 10860 10863 10865 10867 10870 10873 10876 10879 10882 10885 10888 10892 10895 10897 10900 10903 10907 10911 10915 10918 10921 10924 10927 10930 10933 10936 10938 10940 10941 10942 10943 10944 10945 10947 10949 10950 10950 10951 10951 10952 10952 10952 10952 10952 10953
10863 10862 10860 10857 10855 10853 10851 10850 10848 10846 10845 10844 10843 10842 10841 10840 10839 10837 10835 10835 10835 10836 10836 10836 10836 10835 10836 10837 10838 10840 10840 10841 10842 10843 10844 10846 10847 10849 10850 10851 10853 10855 10857 10860 10862 10865 10868 10871 10875 10878 10882 10885 10888 10891 10894 10897 10901 10905 10909 10913 10917 10920 10923 10927 10930 10933 10936 10938 10939 10940 10941 10941 10942 10944 10947 10948 10949 10949 10950 10950 10951 10951 10951 10952 10952
10857 10855 10853 10850 10848 10846 10844 10842 10840 10838 10837 10836 10835 10833 10833 10832 10831 10829 10827 10825 10825 10825 10826 10826 10826 10826 10826 10826 10827 10828 10829 10831 10833 10833 10834 10836 10838 10839 10841 10843 10845 10847 10849 10852 10854 10857 10860 10863 10867 10870 10874 10878 10882 10885 10888 10891 10895 10899 10903 10908 10912 10916 10920 10924 10928 10930 10933 10935 10936 10937 10938 10939 10940 10942 10945 10946 10946 10948 10949 10949 10949 10950 10950 10950 10951
10851 10849 10846 10843 10841 10839 10837 10835 10833 10831 10829 10828 10826 10825 10824 10823 10821 10820 10818 10816 10815 10814 10814 10815 10816 10816 10816 10816 10816 10817 10818 10819 10821 10823 10824 10825 10827 10829 10831 10833 10836 10838 10840 10843 10846 10848 10851 10855 10858 10862 10866 10871 10875 10878 10882 10885 10889 10892 10897 10902 10906 10911 10916 10920 10924 10927 10929 10931 10933 10934 10936 10937 10938 10940 10942 10943 10944 10946 10947 10947 10948 10949 10948 10948 10949
10845 10843 10840 10837 10835 10832 10830 10828 10826 10823 10821 10820 10818 10816 10814 10813 10812 10810 10809 10807 10806 10805 10804 10804 10804 10804 10805 10805 10805 10806 10807 10808 10809 10811 10813 10815 10816 10818 10820 10823 10826 10829 10831 10834 10837 10839 10842 10846 10850 10853 10858 10863 10867 10871 10875 10879 10883 10886 10891 10896 10900 10905 10910 10915 10919 10922 10924 10927 10929 10931 10933 10934 10935 10937 10939 10940 10942 10944 10945 10946 10947 10947 10947 10947 10948
10838 10836 10833 10830 10828 10825 10823 10821 10818 10816 10814 10812 10810 10808 10805 10804 10802 10801 10799 10798 10797 10795 10794 10793 10793 10793 10794 10794 10795 10795 10796 10797 10798 10799 10801 10803 10805 10806 10809 10812 10815 10819 10822 10825 10828 10830 10834 10837 10841 10845 10849 10854 10859 10863 10868 10872 10876 10880 10884 10889 10894 10899 10904 10908 10912 10916 10919 10922 10925 10927 10929 10931 10932 10934 10936 10938 10940 10942 10943 10944 10945 10946 10946 10946 10947
10832 10829 10826 10823 10821 10818 10816 10814 10811 10809 10806 10804 10802 10800 10797 10795 10793 10792 10790 10788 10787 10786 10784 10783 10782 10783 10783 10784 10784 10784 10785 10786 10787 10788 10789 10791 10793 10795 10797 10800 10803 10807 10811 10815 10818 10821 10825 10829 10832 10836 10840 10845 10850 10855 10860 10865 10869 10873 10877 10882 10888 10892 10897 10901 10905 10910 10914 10918 10921 10924 10925 10927 10929 10931 10934 10936 10938 10940 10941 10942 10943 10944 10944 10945 10946
10825 10822 10819 10817 10814 10811 10809 10807 10804 10802 10799 10797 10795 10792 10790 10788 10786 10784 10782 10780 10778 10777 10775 10774 10773 10772 10772 10773 10773 10773 10773 10774 10775 10776 10778 10780 10782 10784 10786 10788 10791 10794 10799 10804 10808 10812 10816 10820 10824 10827 10831 10836 10842 10847 10852 10857 10862 10866 10870 10875 10879 10883 10889 10895 10899 10903 10907 10912 10916 10919 10921 10923 10926 10928 10931 10933 10935 10936 10937 10939 10941 10942 10942 10944 10944
10819 10816 10813 10810 10807 10804 10802 10800 10797 10795 10793 10790 10788 10785 10783 10780 10778 10776 10774 10772 10770 10769 10767 10766 10764 10763 10762 10762 10762 10762 10762 10762 10763 10764 10766 10768 10770 10772 10774 10776 10779 10782 10786 10792 10796 10801 10805 10810 10814 10818 10822 10827 10832 10838 10843 10849 10854 10859 10864 10867 10871 10876 10882 10887 10892 10897 10901 10906 10910 10914 10917 10919 10922 10924 10927 10929 10931 10932 10934 10935 10938 10939 10940 10942 10942
10812 10809 10806 10804 10801 10798 10795 10793 10791 10788 10786 10783 10781 10778 10776 10773 10771 10769 10767 10765 10763 10761 10760 10758 10757 10755 10754 10753 10753 10752 10751 10751 10751 10752 10754 10756 10759 10761 10762 10765 10767 10769 10773 10779 10784 10789 10794 10799 10804 10809 10813 10818 10823 10829 10834 10840 10846 10850 10855 10859 10864 10869 10875 10880 10885 10890 10896 10901 10905 10909 10912 10915 10917 10920 10923 10925 10926 10928 10930 10932 10935 10937 10938 10940 10940
10807 10803 10800 10797 10794 10792 10789 10786 10784 10781 10778 10776 10773 10771 10769 10767 10764 10762 10760 10758 10756 10754 10753 10751 10749 10748 10746 10745 10744 10743 10742 10742 10741 10741 10742 10744 10747 10749 10751 10753 10756 10758 10761 10765 10771 10777 10782 10788 10793 10798 10803 10808 10814 10819 10825 10831 10836 10841 10846 10851 10856 10862 10868 10873 10878 10885 10891 10895 10899 10903 10907 10910 10913 10917 10919 10921 10923 10924 10926 10929 10931 10933 10936 10937 10938
10801 10797 10794 10791 10788 10785 10782 10779 10777 10774 10772 10769 10767 10764 10762 10760 10758 10755 10753 10751 10748 10747 10745 10743 10742 10740 10738 10736 10735 10734 10733 10732 10732 10731 10732 10733 10735 10737 10739 10742 10744 10746 10749 10752 10758 10764 10769 10775 10781 10787 10793 10798 10804 10809 10815 10821 10827 10832 10838 10844 10849 10854 10861 10866 10871 10878 10884 10889 10892 10897 10902 10905 10909 10914 10917 10919 10920 10922 10924 10926 10928 10930 10932 10933 10935
10795 10791 10788 10785 10782 10779 10776 10773 10771 10768 10766 10763 10760 10757 10755 10753 10751 10748 10746 10743 10741 10739 10737 10735 10733 10731 10729 10727 10726 10725 10723 10722 10721 10721 10721 10722 10724 10725 10727 10730 10732 10734 10737 10740 10744 10750 10756 10762 10768 10775 10782 10788 10793 10799 10805 10811 10817 10823 10830 10836 10841 10847 10853 10859 10864 10870 10877 10882 10886 10891 10895 10899 10903 10909 10913 10915 10917 10918 10920 10923 10925 10926 10928 10929 10931
10789 10785 10782 10779 10776 10773 10770 10767 10765 10762 10760 10757 10754 10751 10748 10746 10743 10741 10738 10735 10732 10730 10728 10726 10724 10722 10720 10719 10717 10716 10714 10712 10711 10710 10710 10711 10712 10714 10716 10718 10719 10721 10724 10727 10731 10736 10743 10749 10755 10762 10769 10776 10782 10789 10795 10801 10808 10814 10821 10827 10833 10839 10845 10851 10857 10862 10868 10875 10880 10884 10888 10892 10897 10902 10907 10909 10912 10914 10916 10919 10921 10923 10924 10925 10928
10784 10781 10777 10773 10770 10767 10764 10762 10759 10756 10753 10750 10747 10744 10742 10739 10737 10734 10731 10728 10725 10722 10720 10718 10715 10713 10712 10711 10710 10708 10706 10704 10702 10701 10700 10700 10701 10702 10704 10706 10708 10709 10711 10714 10718 10723 10729 10736 10742 10749 10756 10764 10772 10778 10785 10792 10798 10804 10811 10817 10824 10830 10836 10843 10849 10855 10861 10867 10872 10877 10881 10886 10892 10896 10901 10904 10907 10910 10912 10914 10917 10919 10920 10922 10924
10779 10776 10772 10769 10765 10762 10759 10756 10753 10750 10747 10744 10742 10739 10736 10733 10731 10728 10725 10722 10719 10716 10714 10711 10708 10706 10704 10703 10702 10700 10698 10696 10694 10692 10691 10690 10690 10691 10692 10693 10695 10697 10699 10701 10705 10710 10716 10723 10729 10736 10743 10751 10759 10767 10775 10782 10788 10795 10802 10808 10815 10822 10828 10834 10841 10847 10853 10859 10865 10871 10876 10882 10887 10890 10894 10899 10902 10904 10907 10910 10913 10914 10915 10918 10920
10774 10771 10767 10764 10761 10758 10754 10751 10748 10745 10742 10739 10737 10734 10731 10728 10725 10722 10719 10716 10714 10711 10707 10704 10701 10699 10697 10696 10694 10692 10690 10688 10687 10685 10684 10682 10680 10680 10681 10682 10683 10685 10687 10690 10692 10697 10703 10710 10716 10723 10730 10738 10746 10755 10764 10771 10778 10785 10793 10800 10807 10814 10820 10826 10833 10839 10846 10852 10858 10864 10870 10876 10881 10884 10887 10892 10896 10898 10902 10905 10908 10910 10912 10914 10916
10769 10765 10762 10759 10756 10753 10749 10746 10742 10739 10737 10734 10731 10728 10725 10722 10719 10717 10714 10711 10708 10705 10702 10698 10695 10693 10691 10689 10687 10685 10683 10681 10680 10678 10676 10674 10672 10671 10670 10671 10672 10674 10676 10678 10680 10684 10690 10697 10704 10710 10717 10725 10733 10743 10752 10761 10768 10776 10783 10791 10798 10805 10812 10818 10825 10831 10838 10845 10851 10858 10864 10870 10875 10878 10881 10886 10890 10893 10896 10900 10904 10906 10908 10910 10912
10764 10760 10757 10754 10751 10748 10744 10741 10737 10734 10731 10728 10725 10722 10719 10716 10714 10711 10708 10705 10702 10700 10697 10693 10690 10687 10685 10683 10681 10678 10676 10674 10672 10671 10669 10666 10664 10663 10661 10661 10662 10662 10664 10666 10669 10672 10677 10684 10691 10697 10704 10712 10721 10730 10740 10749 10758 10766 10773 10781 10789 10796 10803 10810 10816 10823 10830 10837 10844 10850 10856 10863 10868 10871 10875 10880 10883 10886 10890 10895 10898 10901 10903 10905 10907
10759 10756 10753 10750 10746 10742 10739 10736 10732 10729 10725 10722 10719 10716 10714 10711 10708 10705 10702 10699 10696 10694 10691 10688 10685 10683 10680 10677 10675 10672 10670 10667 10665 10664 10662 10659 10657 10655 10653 10652 10652 10652 10653 10655 10657 10661 10665 10671 10678 10684 10691 10699 10708 10717 10727 10737 10746 10755 10763 10770 10778 10786 10794 10801 10808 10815 10822 10829 10836 10842 10848 10855 10861 10864 10868 10873 10876 10880 10885 10890 10893 10896 10899 10901 10903
10755 10752 10748 10745 10741 10738 10734 10731 10728 10724 10720 10716 10713 10711 10708 10705 10703 10700 10697 10694 10691 10689 10686 10683 10680 10678 10676 10673 10670 10667 10665 10662 10659 10658 10655 10653 10651 10648 10646 10644 10643 10643 10644 10645 10647 10650 10654 10659 10665 10671 10678 10686 10696 10705 10715 10724 10734 10743 10751 10759 10767 10776 10784 10791 10799 10806 10813 10820 10827 10834 10840 10847 10853 10858 10863 10867 10871 10875 10880 10884 10888 10892 10895 10897 10899
10752 10748 10744 10740 10737 10733 10730 10727 10724 10721 10717 10713 10709 10706 10702 10699 10697 10695 10692 10689 10686 10684 10681 10678 10675 10673 10671 10669 10666 10663 10660 10657 10654 10651 10649 10647 10645 10642 10640 10637 10636 10635 10635 10636 10637 10639 10643 10648 10653 10659 10665 10673 10683 10693 10702 10711 10721 10730 10739 10748 10756 10765 10774 10781 10789 10797 10804 10811 10819 10826 10832 10838 10845 10851 10857 10862 10867 10872 10876 10880 10884 10887 10889 10891 10894
10747 10743 10739 10736 10732 10729 10726 10723 10721 10718 10715 10711 10706 10702 10698 10694 10692 10690 10687 10684 10681 10679 10676 10673 10671 10668 10667 10664 10661 10658 10655 10652 10649 10646 10643 10641 10639 10636 10634 10631 10629 10627 10627 10628 10629 10630 10633 10637 10642 10647 10653 10661 10670 10679 10689 10698 10708 10717 10727 10736 10746 10755 10763 10771 10780 10788 10795 10803 10810 10817 10823 10830 10836 10843 10850 10856 10862 10867 10871 10875 10879 10882 10885 10887 10890
10743 10739 10735 10732 10728 10725 10722 10720 10717 10715 10713 10709 10705 10699 10695 10690 10688 10686 10684 10680 10677 10674 10672 10669 10666 10664 10662 10659 10656 10653 10651 10648 10644 10640 10637 10635 10632 10630 10628 10625 10623 10621 10620 10620 10621 10622 10624 10627 10631 10636 10642 10649 10656 10665 10675 10685 10695 10705 10715 10726 10736 10745 10753 10761 10770 10778 10786 10794 10802 10808 10815 10822 10829 10835 10842 10849 10855 10860 10865 10869 10873 10877 10880 10882 10886
10739 10735 10731 10728 10725 10722 10719 10716 10713 10711 10709 10706 10702 10697 10692 10687 10684 10682 10680 10677 10673 10670 10668 10665 10662 10660 10657 10655 10652 10649 10645 10642 10639 10635 10632 10629 10627 10624 10622 10620 10617 10615 10614 10613 10613 10614 10616 10618 10622 10626 10631 10637 10644 10653 10663 10673 10683 10693 10704 10715 10725 10735 10744 10751 10760 10768 10776 10785 10793 10800 10807 10814 10821 10828 10834 10840 10846 10852 10857 10862 10867 10872 10874 10877 10881
10736 10732 10728 10725 10722 10719 10716 10712 10710 10707 10704 10702 10699 10695 10690 10685 10681 10678 10676 10673 10670 10667 10664 10661 10658 10655 10652 10650 10647 10644 10640 10637 10634 10630 10627 10623 10621 10618 10616 10614 10611 10609 10608 10607 10606 10607 10608 10610 10613 10616 10621 10626 10633 10642 10652 10662 10672 10682 10693 10704 10714 10724 10733 10742 10750 10759 10767 10775 10784 10792 10799 10806 10814 10821 10826 10832 10839 10845 10850 10855 10861 10865 10868 10873 10876
10733 10729 10726 10723 10720 10717 10713 10709 10706 10703 10700 10697 10695 10691 10687 10682 10678 10675 10673 10670 10667 10664 10661 10658 10655 10651 10648 10645 10642 10639 10635 10632 10628 10625 10622 10618 10615 10612 10610 10608 10606 10604 10602 10601 10600 10600 10601 10603 10605 10608 10612 10617 10625 10633 10642 10651 10661 10672 10683 10694 10703 10713 10723 10732 10741 10750 10758 10767 10775 10783 10791 10799 10806 10813 10819 10825 10831 10837 10843 10849 10855 10859 10863 10867 10870
10730 10727 10724 10721 10718 10715 10711 10707 10703 10700 10697 10694 10691 10688 10685 10680 10676 10672 10670 10667 10664 10661 10658 10654 10651 10647 10644 10641 10638 10634 10631 10627 10624 10620 10617 10614 10610 10607 10604 10602 10600 10598 10597 10595 10595 10594 10594 10596 10598 10600 10604 10609 10616 10624 10632 10641 10650 10660 10672 10682 10692 10703 10713 10722 10731 10740 10749 10758 10766 10774 10782 10790 10798 10806 10812 10818 10824 10830 10837 10844 10849 10854 10858 10862 10865
10727 10725 10722 10719 10715 10712 10708 10705 10701 10697 10694 10691 10688 10686 10683 10679 10674 10670 10667 10664 10662 10658 10655 10651 10647 10644 10640 10636 10633 10630 10626 10623 10619 10616 10612 10609 10605 10602 10598 10596 10594 10593 10591 10590 10589 10589 10588 10589 10591 10594 10597 10602 10607 10614 10622 10631 10639 10649 10660 10671 10682 10692 10702 10712 10721 10730 10739 10749 10757 10764 10773 10781 10790 10798 10805 10811 10817 10824 10831 10837 10843 10847 10852 10856 10859
10724 10721 10718 10715 10711 10708 10705 10702 10698 10695 10692 10689 10686 10683 10680 10676 10672 10668 10665 10662 10659 10655 10651 10648 10644 10640 10637 10633 10629 10626 10622 10618 10615 10611 10608 10604 10600 10597 10593 10591 10589 10587 10586 10584 10584 10583 10583 10583 10585 10588 10591 10595 10599 10606 10613 10621 10630 10639 10649 10660 10671 10682 10692 10701 10710 10719 10729 10739 10747 10755 10763 10772 10782 10789 10796 10802 10810 10817 10824 10830 10836 10840 10845 10849 10853
10720 10717 10714 10711 10707 10704 10702 10699 10695 10692 10688 10686 10682 10679 10676 10673 10669 10666 10662 10659 10656 10652 10648 10645 10641 10638 10634 10630 10626 10622 10618 10614 10611 10607 10603 10599 10595 10591 10588 10585 10583 10582 10581 10579 10579 10578 10578 10578 10580 10582 10585 10588 10592 10597 10604 10612 10620 10629 10639 10649 10660 10671 10681 10691 10700 10709 10719 10729 10738 10746 10754 10763 10772 10779 10786 10794 10802 10809 10816 10823 10828 10833 10838 10842 10846
10717 10714 10711 10707 10704 10701 10698 10695 10692 10689 10686 10682 10679 10676 10673 10670 10667 10663 10660 10656 10652 10649 10645 10642 10638 10635 10631 10627 10623 10619 10615 10611 10606 10602 10598 10594 10590 10586 10583 10580 10578 10576 10575 10575 10574 10573 10573 10573 10574 10577 10579 10582 10585 10590 10596 10603 10611 10619 10629 10639 10649 10660 10671 10680 10689 10699 10709 10718 10728 10737 10745 10753 10762 10770 10778 10787 10795 10802 10809 10815 10821 10825 10831 10835 10840
10715 10712 10708 10705 10702 10699 10696 10693 10690 10687 10683 10680 10677 10673 10670 10667 10664 10661 10657 10653 10650 10646 10642 10638 10635 10631 10628 10624 10621 10616 10612 10607 10602 10598 10594 10590 10586 10582 10579 10576 10574 10572 10570 10570 10569 10569 10569 10569 10570 10571 10574 10576 10579 10583 10588 10594 10602 10611 10619 10629 10639 10650 10660 10670 10679 10689 10699 10708 10718 10727 10735 10743 10752 10761 10769 10779 10787 10793 10801 10808 10814 10819 10824 10828 10833
10713 10710 10707 10704 10701 10698 10695 10691 10688 10685 10681 10678 10674 10671 10668 10665 10661 10658 10654 10651 10647 10643 10639 10635 10632 10628 10625 10622 10618 10614 10609 10604 10599 10595 10590 10586 10582 10578 10575 10572 10570 10568 10566 10565 10565 10565 10565 10565 10565 10566 10568 10571 10573 10577 10581 10587 10594 10602 10611 10620 10629 10639 10649 10660 10669 10679 10688 10698 10707 10717 10725 10734 10743 10752 10761 10770 10779 10786 10793 10801 10807 10812 10817 10820 10823
10710 10708 10705 10702 10699 10696 10693 10689 10686 10683 10679 10676 10672 10669 10665 10662 10658 10655 10651 10648 10644 10640 10636 10632 10629 10625 10622 10619 10615 10611 10607 10602 10597 10592 10588 10583 10579 10575 10572 10569 10567 10565 10563 10562 10561 10561 10561 10561 10561 10562 10563 10565 10568 10571 10575 10580 10586 10594 10602 10610 10620 10629 10639 10649 10659 10669 10679 10688 10697 10707 10716 10724 10734 10743 10752 10762 10771 10778 10785 10793 10799 10805 10808 10809 10813
10708 10706 10703 10700 10697 10694 10691 10687 10684 10680 10677 10674 10670 10666 10663 10659 10656 10652 10649 10645 10641 10637 10633 10629 10626 10623 10620 10617 10613 10609 10605 10600 10595 10590 10586 10581 10577 10573 10569 10566 10564 10562 10560 10558 10558 10557 10557 10557 10557 10558 10559 10561 10563 10566 10569 10574 10580 10587 10594 10602 10611 10620 10629 10638 10648 10659 10669 10678 10687 10697 10706 10715 10724 10734 10743 10754 10762 10769 10776 10783 10790 10796 10799 10801 10805